EW9065 Weather Reports


Display with metric or nautical units.
time (UTC)temp
F
wind
direction
speed
MPH
gust
MPH
rain 1hr
in
rain 24hr
in
rain mn
in
humidity
%
barometer
mb
20220628090009 54 229 0.0 0.0 0.00 0.06 0.00 87 1011.8
20220628084501 54 229 0.0 0.0 0.00 0.06 0.00 86 1011.7
20220628083100 54 229 0.0 0.0 0.00 0.06 0.00 85 1011.4
20220628081603 54 229 0.0 0.0 0.00 0.06 0.00 85 1011.4
20220628080057 55 229 0.0 0.0 0.00 0.06 0.00 85 1011.4
20220628074558 55 229 0.0 0.0 0.00 0.06 0.00 83 1011.4
20220628073053 55 229 0.0 0.0 0.00 0.06 0.00 83 1011.3
20220628071600 56 229 0.0 0.0 0.00 0.06 0.00 82 1011.3
20220628070050 56 229 0.0 0.0 0.00 0.06 0.00 80 1011.1
20220628064547 56 229 0.0 0.0 0.00 0.06 0.00 81 1011.1
20220628063048 57 229 0.0 0.0 0.00 0.06 0.00 80 1011.0
20220628061549 58 229 0.0 0.0 0.00 0.06 0.00 79 1010.9
20220628060040 58 229 0.0 0.0 0.00 0.06 0.00 78 1010.9
20220628054537 59 229 0.0 0.0 0.00 0.06 0.00 78 1010.6
20220628053041 59 229 0.0 0.0 0.00 0.06 0.00 74 1010.4
20220628051533 60 229 0.0 0.0 0.00 0.06 0.00 74 1010.2
20220628050027 61 229 0.0 0.0 0.00 0.06 0.00 76 1010.2
20220628044540 61 229 0.0 0.0 0.00 0.06 0.00 77 1010.1
20220628043022 62 229 0.0 0.0 0.00 0.06 0.00 75 1010.0
20220628041520 63 229 0.0 0.0 0.00 0.06 0.00 77 1010.0
20220628040016 64 229 0.0 0.0 0.00 0.06 0.00 77 1009.8
20220628034519 65 229 0.0 0.0 0.00 0.06 0.06 79 1009.7
20220628033013 65 229 0.0 0.0 0.00 0.06 0.06 73 1009.6
20220628031512 65 229 0.0 0.0 0.00 0.06 0.06 73 1009.4
20220628030012 66 235 0.0 0.0 0.00 0.06 0.06 85 1009.2
20220628024610 66 133 0.0 0.0 0.00 0.06 0.06 82 1009.2
20220628023008 66 142 0.0 0.0 0.00 0.06 0.06 89 1009.2
20220628021506 66 161 0.0 0.0 0.00 0.06 0.06 87 1009.1
20220628020003 67 114 0.0 0.0 0.00 0.06 0.06 91 1009.0
20220628014504 68 114 0.0 0.0 0.00 0.06 0.06 91 1008.8
20220628013005 68 114 0.0 0.0 0.00 0.06 0.06 91 1008.6
20220628011501 69 114 0.0 0.0 0.00 0.06 0.06 91 1008.4
20220628010001 70 114 0.0 0.0 0.00 0.06 0.06 92 1008.2
20220628004500 70 113 0.0 0.0 0.00 0.06 0.06 92 1007.9
20220628003101 71 113 0.0 0.0 0.00 0.06 0.06 92 1007.6
20220628001600 71 113 0.0 0.0 0.00 0.06 0.06 92 1007.3
20220628000101 72 76 0.0 0.0 0.00 0.06 0.06 92 1007.2
20220627234559 72 76 0.0 0.0 0.00 0.06 0.06 91 1007.1
20220627233109 73 74 0.0 0.0 0.00 0.06 0.06 91 1007.0
20220627231604 73 74 0.0 0.0 0.00 0.06 0.06 91 1007.0
20220627230057 73 73 0.0 0.0 0.00 0.06 0.06 91 1006.9
20220627224606 73 69 0.0 0.0 0.00 0.06 0.06 90 1006.9
20220627223105 73 240 0.0 0.0 0.00 0.06 0.06 90 1006.7
20220627221556 73 43 0.0 0.0 0.00 0.06 0.06 90 1006.6
20220627220057 74 67 0.0 0.0 0.00 0.06 0.06 90 1006.5
20220627214600 73 92 0.0 0.0 0.00 0.06 0.06 91 1006.5
20220627213054 73 60 0.0 0.0 0.00 0.06 0.06 91 1006.4
20220627211555 73 73 0.0 0.0 0.00 0.06 0.06 91 1006.4
20220627210053 74 94 0.0 0.0 0.00 0.06 0.06 91 1006.3
20220627204553 74 355 0.0 0.0 0.00 0.06 0.06 91 1006.4
20220627203049 73 71 0.0 0.0 0.00 0.06 0.06 91 1006.5
20220627201552 73 85 0.0 0.0 0.00 0.06 0.06 92 1006.5
20220627200042 73 95 0.0 0.0 0.00 0.06 0.06 92 1006.6
20220627194535 73 12 0.0 0.0 0.00 0.06 0.06 91 1006.6
20220627193033 73 38 0.0 0.0 0.00 0.06 0.06 92 1006.6
20220627191526 73 84 0.0 0.0 0.00 0.06 0.06 93 1006.6
20220627190026 73 78 0.0 0.0 0.00 0.06 0.06 92 1006.7
20220627184524 73 36 0.0 0.0 0.00 0.06 0.06 92 1006.8
20220627183023 73 55 0.0 0.0 0.01 0.06 0.06 93 1006.8
20220627181521 72 67 0.0 0.0 0.01 0.06 0.06 93 1006.8
20220627180015 72 63 0.0 0.0 0.01 0.06 0.06 93 1006.9
20220627174514 72 61 0.0 0.0 0.01 0.06 0.06 93 1007.0
20220627173014 72 96 0.0 0.0 0.00 0.05 0.05 93 1006.9
20220627171512 72 69 0.0 0.0 0.00 0.05 0.05 93 1007.0
20220627170018 71 97 0.0 0.0 0.01 0.05 0.05 93 1007.0
20220627164512 71 80 0.0 0.0 0.03 0.05 0.05 92 1007.0
20220627163010 71 144 0.0 0.0 0.04 0.05 0.05 92 1006.9
20220627161509 71 82 0.0 0.0 0.04 0.05 0.05 93 1006.9
20220627160006 71 62 0.0 0.0 0.03 0.04 0.04 92 1007.0
20220627154503 71 68 0.0 0.0 0.01 0.02 0.02 92 1006.9
20220627153003 71 75 0.0 0.0 0.01 0.01 0.01 91 1006.9
20220627151502 71 96 0.0 0.0 0.01 0.01 0.01 90 1006.8
20220627150005 71 98 0.0 0.0 0.01 0.01 0.01 89 1006.8
20220627144500 72 33 0.0 0.0 0.01 0.01 0.01 87 1006.6
20220627143057 72 65 0.0 0.0 0.00 0.00 0.00 85 1006.6
20220627141553 72 105 0.0 0.0 0.00 0.00 0.00 84 1006.5
20220627140102 72 94 0.0 0.0 0.00 0.00 0.00 84 1006.5
20220627134551 72 76 0.0 0.0 0.00 0.00 0.00 84 1006.6
20220627133050 71 98 0.0 0.0 0.00 0.00 0.00 84 1006.6
20220627131546 71 19 0.0 0.0 0.00 0.00 0.00 84 1006.7
20220627130046 71 78 0.0 0.0 0.00 0.00 0.00 84 1006.8
20220627124545 71 60 0.0 0.0 0.00 0.00 0.00 82 1006.6
20220627123044 71 53 0.0 0.0 0.00 0.00 0.00 82 1006.8
20220627121543 71 65 0.0 0.0 0.00 0.00 0.00 82 1006.7
20220627120043 71 63 0.0 0.0 0.00 0.00 0.00 83 1006.8
20220627114548 70 87 0.0 0.0 0.00 0.00 0.00 83 1007.0
20220627113042 70 53 0.0 0.0 0.00 0.00 0.00 83 1007.1
20220627111554 70 65 0.0 0.0 0.00 0.00 0.00 83 1006.8
20220627110042 69 85 0.0 0.0 0.00 0.00 0.00 83 1006.9
20220627104538 69 53 0.0 0.0 0.00 0.00 0.00 83 1006.8
20220627103034 68 85 0.0 0.0 0.00 0.00 0.00 84 1007.2
20220627101532 68 103 0.0 0.0 0.00 0.00 0.00 84 1007.3
20220627100029 67 98 0.0 0.0 0.00 0.00 0.00 83 1007.5
20220627094527 67 48 0.0 0.0 0.00 0.00 0.00 82 1007.5
20220627093026 67 49 0.0 0.0 0.00 0.00 0.00 81 1007.6
20220627091523 67 161 0.0 0.0 0.00 0.00 0.00 79 1007.6